Year,Month,Day,Hour,Minute,Value (Times are PST for temperature in C)
2019,02,05,00,00,-2.20
2019,02,05,00,01,-2.20
2019,02,05,00,02,-2.20
2019,02,05,00,03,-2.20
2019,02,05,00,04,-2.20
2019,02,05,00,05,-2.20
2019,02,05,00,06,-2.20
2019,02,05,00,07,-2.20
2019,02,05,00,08,-2.20
2019,02,05,00,09,-2.20
2019,02,05,00,10,-2.20
2019,02,05,00,11,-2.20
2019,02,05,00,12,-2.20
2019,02,05,00,13,-2.20
2019,02,05,00,14,-2.20
2019,02,05,00,15,-2.10
2019,02,05,00,16,-2.10
2019,02,05,00,17,-2.10
2019,02,05,00,18,-2.10
2019,02,05,00,19,-2.10
2019,02,05,00,20,-2.10
2019,02,05,00,21,-2.10
2019,02,05,00,22,-2.10
2019,02,05,00,23,-2.10
2019,02,05,00,24,-2.10
2019,02,05,00,25,-2.10
2019,02,05,00,26,-2.10
2019,02,05,00,27,-2.10
2019,02,05,00,28,-2.10
2019,02,05,00,29,-2.10
2019,02,05,00,30,-2.10
2019,02,05,00,31,-2.10
2019,02,05,00,32,-2.10
2019,02,05,00,33,-2.10
2019,02,05,00,34,-2.10
2019,02,05,00,35,-2.10
2019,02,05,00,36,-2.10
2019,02,05,00,37,-2.10
2019,02,05,00,38,-2.10
2019,02,05,00,39,-2.10
2019,02,05,00,40,-2.20
2019,02,05,00,41,-2.20
2019,02,05,00,42,-2.20
2019,02,05,00,43,-2.20
2019,02,05,00,44,-2.20
2019,02,05,00,45,-2.20
2019,02,05,00,46,-2.20
2019,02,05,00,47,-2.20
2019,02,05,00,48,-2.30
2019,02,05,00,49,-2.30
2019,02,05,00,50,-2.30
2019,02,05,00,51,-2.30
2019,02,05,00,52,-2.30
2019,02,05,00,53,-2.30
2019,02,05,00,54,-2.30
2019,02,05,00,55,-2.30
2019,02,05,00,56,-2.30
2019,02,05,00,57,-2.30
2019,02,05,00,58,-2.30
2019,02,05,00,59,-2.30
2019,02,05,01,00,-2.30
2019,02,05,01,01,-2.40
2019,02,05,01,02,-2.40
2019,02,05,01,03,-2.40
2019,02,05,01,04,-2.40
2019,02,05,01,05,-2.40
2019,02,05,01,06,-2.40
2019,02,05,01,07,-2.50
2019,02,05,01,08,-2.50
2019,02,05,01,09,-2.50
2019,02,05,01,10,-2.60
2019,02,05,01,11,-2.60
2019,02,05,01,12,-2.60
2019,02,05,01,13,-2.60
2019,02,05,01,14,-2.70
2019,02,05,01,15,-2.70
2019,02,05,01,16,-2.70
2019,02,05,01,17,-2.80
2019,02,05,01,18,-2.80
2019,02,05,01,19,-2.80
2019,02,05,01,20,-2.90
2019,02,05,01,21,-2.90
2019,02,05,01,22,-2.90
2019,02,05,01,23,-3.00
2019,02,05,01,24,-3.00
2019,02,05,01,25,-3.10
2019,02,05,01,26,-3.10
2019,02,05,01,27,-3.10
2019,02,05,01,28,-3.10
2019,02,05,01,29,-3.10
2019,02,05,01,30,-3.10
2019,02,05,01,31,-3.10
2019,02,05,01,32,-3.00
2019,02,05,01,33,-3.00
2019,02,05,01,34,-3.00
2019,02,05,01,35,-3.00
2019,02,05,01,36,-3.00
2019,02,05,01,37,-3.00
2019,02,05,01,38,-2.90
2019,02,05,01,39,-2.90
2019,02,05,01,40,-2.90
2019,02,05,01,41,-2.90
2019,02,05,01,42,-3.00
2019,02,05,01,43,-3.00
2019,02,05,01,44,-3.00
2019,02,05,01,45,-3.00
2019,02,05,01,46,-3.00
2019,02,05,01,47,-3.10
2019,02,05,01,48,-3.10
2019,02,05,01,49,-3.10
2019,02,05,01,50,-3.10
2019,02,05,01,51,-3.10
2019,02,05,01,52,-3.10
2019,02,05,01,53,-3.10
2019,02,05,01,54,-3.10
2019,02,05,01,55,-3.10
2019,02,05,01,56,-3.10
2019,02,05,01,57,-3.10
2019,02,05,01,58,-3.10
2019,02,05,01,59,-3.10
2019,02,05,02,00,-3.10
2019,02,05,02,01,-3.10
2019,02,05,02,02,-3.10
2019,02,05,02,03,-3.00
2019,02,05,02,04,-3.00
2019,02,05,02,05,-3.00
2019,02,05,02,06,-3.00
2019,02,05,02,07,-3.00
2019,02,05,02,08,-3.00
2019,02,05,02,09,-3.10
2019,02,05,02,10,-3.10
2019,02,05,02,11,-3.10
2019,02,05,02,12,-3.10
2019,02,05,02,13,-3.10
2019,02,05,02,14,-3.20
2019,02,05,02,15,-3.20
2019,02,05,02,16,-3.20
2019,02,05,02,17,-3.20
2019,02,05,02,18,-3.20
2019,02,05,02,19,-3.20
2019,02,05,02,20,-3.30
2019,02,05,02,21,-3.30
2019,02,05,02,22,-3.30
2019,02,05,02,23,-3.30
2019,02,05,02,24,-3.30
2019,02,05,02,25,-3.40
2019,02,05,02,26,-3.40
2019,02,05,02,27,-3.40
2019,02,05,02,28,-3.40
2019,02,05,02,29,-3.40
2019,02,05,02,30,-3.40
2019,02,05,02,31,-3.40
2019,02,05,02,32,-3.40
2019,02,05,02,33,-3.50
2019,02,05,02,34,-3.50
2019,02,05,02,35,-3.50
2019,02,05,02,36,-3.50
2019,02,05,02,37,-3.50
2019,02,05,02,38,-3.50
2019,02,05,02,39,-3.50
2019,02,05,02,40,-3.50
2019,02,05,02,41,-3.50
2019,02,05,02,42,-3.50
2019,02,05,02,43,-3.60
2019,02,05,02,44,-3.60
2019,02,05,02,45,-3.60
2019,02,05,02,46,-3.60
2019,02,05,02,47,-3.60
2019,02,05,02,48,-3.70
2019,02,05,02,49,-3.70
2019,02,05,02,50,-3.70
2019,02,05,02,51,-3.70
2019,02,05,02,52,-3.70
2019,02,05,02,53,-3.70
2019,02,05,02,54,-3.70
2019,02,05,02,55,-3.70
2019,02,05,02,56,-3.70
2019,02,05,02,57,-3.70
2019,02,05,02,58,-3.70
2019,02,05,02,59,-3.70
2019,02,05,03,00,-3.70
2019,02,05,03,01,-3.70
2019,02,05,03,02,-3.70
2019,02,05,03,03,-3.70
2019,02,05,03,04,-3.70
2019,02,05,03,05,-3.70
2019,02,05,03,06,-3.70
2019,02,05,03,07,-3.80
2019,02,05,03,08,-3.80
2019,02,05,03,09,-3.80
2019,02,05,03,10,-3.90
2019,02,05,03,11,-3.90
2019,02,05,03,12,-4.00
2019,02,05,03,13,-4.00
2019,02,05,03,14,-4.10
2019,02,05,03,15,-4.10
2019,02,05,03,16,-4.20
2019,02,05,03,17,-4.30
2019,02,05,03,18,-4.30
2019,02,05,03,19,-4.40
2019,02,05,03,20,-4.40
2019,02,05,03,21,-4.40
2019,02,05,03,22,-4.50
2019,02,05,03,23,-4.50
2019,02,05,03,24,-4.50
2019,02,05,03,25,-4.50
2019,02,05,03,26,-4.50
2019,02,05,03,27,-4.50
2019,02,05,03,28,-4.50
2019,02,05,03,29,-4.50
2019,02,05,03,30,-4.50
2019,02,05,03,31,-4.50
2019,02,05,03,32,-4.50
2019,02,05,03,33,-4.50
2019,02,05,03,34,-4.50
2019,02,05,03,35,-4.50
2019,02,05,03,36,-4.50
2019,02,05,03,37,-4.50
2019,02,05,03,38,-4.50
2019,02,05,03,39,-4.50
2019,02,05,03,40,-4.60
2019,02,05,03,41,-4.60
2019,02,05,03,42,-4.60
2019,02,05,03,43,-4.60
2019,02,05,03,44,-4.70
2019,02,05,03,45,-4.70
2019,02,05,03,46,-4.70
2019,02,05,03,47,-4.70
2019,02,05,03,48,-4.80
2019,02,05,03,49,-4.80
2019,02,05,03,50,-4.80
2019,02,05,03,51,-4.80
2019,02,05,03,52,-4.80
2019,02,05,03,53,-4.80
2019,02,05,03,54,-4.80
2019,02,05,03,55,-4.90
2019,02,05,03,56,-4.90
2019,02,05,03,57,-4.80
2019,02,05,03,58,-4.80
2019,02,05,03,59,-4.80
2019,02,05,04,00,-4.80
2019,02,05,04,01,-4.80
2019,02,05,04,02,-4.80
2019,02,05,04,03,-4.80
2019,02,05,04,04,-4.80
2019,02,05,04,08,-4.90
2019,02,05,04,09,-4.90
2019,02,05,04,10,-4.90
2019,02,05,04,11,-4.90
2019,02,05,04,12,-5.00
2019,02,05,04,13,-5.00
2019,02,05,04,14,-5.00
2019,02,05,04,15,-5.00
2019,02,05,04,16,-5.00
2019,02,05,04,17,-5.10
2019,02,05,04,18,-5.10
2019,02,05,04,19,-5.00
2019,02,05,04,20,-5.00
2019,02,05,04,21,-5.00
2019,02,05,04,22,-5.00
2019,02,05,04,23,-5.00
2019,02,05,04,24,-5.00
2019,02,05,04,25,-5.00
2019,02,05,04,26,-5.00
2019,02,05,04,27,-5.00
2019,02,05,04,28,-5.10
2019,02,05,04,29,-5.10
2019,02,05,04,30,-5.10
2019,02,05,04,31,-5.10
2019,02,05,04,32,-5.10
2019,02,05,04,33,-5.10
2019,02,05,04,34,-5.10
2019,02,05,04,35,-5.10
2019,02,05,04,36,-5.10
2019,02,05,04,37,-5.10
2019,02,05,04,38,-5.10
2019,02,05,04,39,-5.10
2019,02,05,04,40,-5.10
2019,02,05,04,41,-5.10
2019,02,05,04,42,-5.10
2019,02,05,04,43,-5.10
2019,02,05,04,44,-5.10
2019,02,05,04,45,-5.10
2019,02,05,04,46,-5.10
2019,02,05,04,47,-5.10
2019,02,05,04,48,-5.10
2019,02,05,04,49,-5.10
2019,02,05,04,50,-5.10
2019,02,05,04,51,-5.10
2019,02,05,04,52,-5.10
2019,02,05,04,53,-5.10
2019,02,05,04,54,-5.10
2019,02,05,04,55,-5.10
2019,02,05,04,56,-5.10
2019,02,05,04,57,-5.10
2019,02,05,04,58,-5.10
2019,02,05,04,59,-5.10
2019,02,05,05,00,-5.10
2019,02,05,05,01,-5.10
2019,02,05,05,02,-5.10
2019,02,05,05,03,-5.20
2019,02,05,05,04,-5.20
2019,02,05,05,05,-5.20
2019,02,05,05,06,-5.30
2019,02,05,05,07,-5.30
2019,02,05,05,08,-5.30
2019,02,05,05,09,-5.30
2019,02,05,05,10,-5.20
2019,02,05,05,11,-5.20
2019,02,05,05,12,-5.20
2019,02,05,05,13,-5.20
2019,02,05,05,14,-5.20
2019,02,05,05,15,-5.20
2019,02,05,05,16,-5.20
2019,02,05,05,17,-5.20
2019,02,05,05,18,-5.20
2019,02,05,05,19,-5.20
2019,02,05,05,20,-5.20
2019,02,05,05,21,-5.20
2019,02,05,05,22,-5.20
2019,02,05,05,23,-5.20
2019,02,05,05,24,-5.20
2019,02,05,05,25,-5.20
2019,02,05,05,26,-5.10
2019,02,05,05,27,-5.10
2019,02,05,05,28,-5.10
2019,02,05,05,29,-5.10
2019,02,05,05,30,-5.10
2019,02,05,05,31,-5.10
2019,02,05,05,32,-5.10
2019,02,05,05,33,-5.10
2019,02,05,05,34,-5.10
2019,02,05,05,35,-5.10
2019,02,05,05,36,-5.10
2019,02,05,05,37,-5.10
2019,02,05,05,38,-5.10
2019,02,05,05,39,-5.10
2019,02,05,05,40,-5.10
2019,02,05,05,41,-5.10
2019,02,05,05,42,-5.00
2019,02,05,05,43,-5.00
2019,02,05,05,44,-5.00
2019,02,05,05,45,-5.00
2019,02,05,05,46,-5.00
2019,02,05,05,47,-5.10
2019,02,05,05,48,-5.10
2019,02,05,05,49,-5.10
2019,02,05,05,50,-5.10
2019,02,05,05,51,-5.00
2019,02,05,05,52,-5.10
2019,02,05,05,53,-5.10
2019,02,05,05,54,-5.10
2019,02,05,05,55,-5.10
2019,02,05,05,56,-5.10
2019,02,05,05,57,-5.10
2019,02,05,05,58,-5.10
2019,02,05,05,59,-5.10
2019,02,05,06,00,-5.10
2019,02,05,06,01,-5.10
2019,02,05,06,02,-5.10
2019,02,05,06,03,-5.10
2019,02,05,06,04,-5.10
2019,02,05,06,05,-5.10
2019,02,05,06,06,-5.10
2019,02,05,06,07,-5.00
2019,02,05,06,08,-5.10
2019,02,05,06,09,-5.00
2019,02,05,06,10,-5.00
2019,02,05,06,11,-5.00
2019,02,05,06,12,-5.00
2019,02,05,06,13,-5.10
2019,02,05,06,14,-5.10
2019,02,05,06,15,-5.10
2019,02,05,06,16,-5.10
2019,02,05,06,17,-5.10
2019,02,05,06,18,-5.10
2019,02,05,06,19,-5.10
2019,02,05,06,20,-5.10
2019,02,05,06,21,-5.10
2019,02,05,06,22,-5.10
2019,02,05,06,23,-5.10
2019,02,05,06,24,-5.10
2019,02,05,06,25,-5.10
2019,02,05,06,26,-5.10
2019,02,05,06,27,-5.00
2019,02,05,06,28,-5.00
2019,02,05,06,29,-5.00
2019,02,05,06,30,-5.00
2019,02,05,06,31,-5.00
2019,02,05,06,32,-4.90
2019,02,05,06,33,-4.90
2019,02,05,06,34,-4.90
2019,02,05,06,35,-4.90
2019,02,05,06,36,-4.80
2019,02,05,06,37,-4.80
2019,02,05,06,38,-4.80
2019,02,05,06,39,-4.80
2019,02,05,06,40,-4.70
2019,02,05,06,41,-4.70
2019,02,05,06,42,-4.70
2019,02,05,06,43,-4.70
2019,02,05,06,44,-4.70
2019,02,05,06,45,-4.70
2019,02,05,06,46,-4.70
2019,02,05,06,47,-4.70
2019,02,05,06,48,-4.70
2019,02,05,06,49,-4.70
2019,02,05,06,50,-4.70
2019,02,05,06,51,-4.70
2019,02,05,06,52,-4.70
2019,02,05,06,53,-4.70
2019,02,05,06,54,-4.70
2019,02,05,06,55,-4.70
2019,02,05,06,56,-4.70
2019,02,05,06,57,-4.70
2019,02,05,06,58,-4.70
2019,02,05,06,59,-4.70
2019,02,05,07,00,-4.70
2019,02,05,07,01,-4.70
2019,02,05,07,02,-4.70
2019,02,05,07,03,-4.60
2019,02,05,07,04,-4.60
2019,02,05,07,05,-4.50
2019,02,05,07,06,-4.50
2019,02,05,07,07,-4.40
2019,02,05,07,08,-4.40
2019,02,05,07,09,-4.40
2019,02,05,07,10,-4.40
2019,02,05,07,11,-4.40
2019,02,05,07,12,-4.40
2019,02,05,07,13,-4.30
2019,02,05,07,14,-4.30
2019,02,05,07,15,-4.30
2019,02,05,07,16,-4.30
2019,02,05,07,17,-4.20
2019,02,05,07,18,-4.20
2019,02,05,07,19,-4.10
2019,02,05,07,20,-4.00
2019,02,05,07,21,-4.00
2019,02,05,07,22,-3.90
2019,02,05,07,23,-3.90
2019,02,05,07,24,-3.80
2019,02,05,07,25,-3.80
2019,02,05,07,26,-3.70
2019,02,05,07,27,-3.70
2019,02,05,07,28,-3.70
2019,02,05,07,29,-3.60
2019,02,05,07,30,-3.60
2019,02,05,07,31,-3.60
2019,02,05,07,32,-3.50
2019,02,05,07,33,-3.50
2019,02,05,07,34,-3.50
2019,02,05,07,35,-3.40
2019,02,05,07,36,-3.30
2019,02,05,07,37,-3.30
2019,02,05,07,38,-3.20
2019,02,05,07,39,-3.10
2019,02,05,07,40,-3.10
2019,02,05,07,41,-3.00
2019,02,05,07,42,-3.00
2019,02,05,07,43,-2.90
2019,02,05,07,44,-2.90
2019,02,05,07,45,-2.90
2019,02,05,07,46,-2.90
2019,02,05,07,47,-2.90
2019,02,05,07,48,-2.90
2019,02,05,07,49,-2.90
2019,02,05,07,50,-2.90
2019,02,05,07,51,-2.90
2019,02,05,07,52,-2.80
2019,02,05,07,53,-2.80
2019,02,05,07,54,-2.80
2019,02,05,07,55,-2.80
2019,02,05,07,56,-2.80
2019,02,05,07,57,-2.80
2019,02,05,07,58,-2.80
2019,02,05,07,59,-2.80
2019,02,05,08,00,-2.80
2019,02,05,08,01,-2.80
2019,02,05,08,02,-2.80
2019,02,05,08,03,-2.80
2019,02,05,08,04,-2.70
2019,02,05,08,05,-2.70
2019,02,05,08,06,-2.70
2019,02,05,08,07,-2.70
2019,02,05,08,08,-2.70
2019,02,05,08,09,-2.70
2019,02,05,08,10,-2.70
2019,02,05,08,11,-2.70
2019,02,05,08,12,-2.70
2019,02,05,08,13,-2.70
2019,02,05,08,14,-2.70
2019,02,05,08,15,-2.70
2019,02,05,08,16,-2.70
2019,02,05,08,17,-2.70
2019,02,05,08,18,-2.70
2019,02,05,08,19,-2.70
2019,02,05,08,20,-2.70
2019,02,05,08,21,-2.70
2019,02,05,08,22,-2.70
2019,02,05,08,23,-2.70
2019,02,05,08,24,-2.70
2019,02,05,08,25,-2.60
2019,02,05,08,26,-2.60
2019,02,05,08,27,-2.60
2019,02,05,08,28,-2.60
2019,02,05,08,29,-2.60
2019,02,05,08,30,-2.60
2019,02,05,08,31,-2.60
2019,02,05,08,32,-2.60
2019,02,05,08,33,-2.60
2019,02,05,08,34,-2.60
2019,02,05,08,35,-2.70
2019,02,05,08,36,-2.70
2019,02,05,08,37,-2.70
2019,02,05,08,38,-2.60
2019,02,05,08,39,-2.60
2019,02,05,08,40,-2.60
2019,02,05,08,41,-2.60
2019,02,05,08,42,-2.60
2019,02,05,08,43,-2.60
2019,02,05,08,44,-2.60
2019,02,05,08,45,-2.60
2019,02,05,08,46,-2.60
2019,02,05,08,47,-2.50
2019,02,05,08,48,-2.50
2019,02,05,08,49,-2.50
2019,02,05,08,50,-2.40
2019,02,05,08,51,-2.40
2019,02,05,08,52,-2.40
2019,02,05,08,53,-2.30
2019,02,05,08,54,-2.30
2019,02,05,08,55,-2.30
2019,02,05,08,56,-2.20
2019,02,05,08,57,-2.20
2019,02,05,08,58,-2.20
2019,02,05,08,59,-2.10
2019,02,05,09,00,-2.10
2019,02,05,09,01,-2.10
2019,02,05,09,02,-2.10
2019,02,05,09,03,-2.00
2019,02,05,09,04,-2.00
2019,02,05,09,05,-2.00
2019,02,05,09,06,-1.90
2019,02,05,09,07,-1.90
2019,02,05,09,08,-1.90
2019,02,05,09,09,-1.80
2019,02,05,09,10,-1.80
2019,02,05,09,11,-1.80
2019,02,05,09,12,-1.80
2019,02,05,09,13,-1.80
2019,02,05,09,14,-1.70
2019,02,05,09,15,-1.70
2019,02,05,09,16,-1.70
2019,02,05,09,17,-1.70
2019,02,05,09,18,-1.70
2019,02,05,09,19,-1.70
2019,02,05,09,20,-1.60
2019,02,05,09,21,-1.60
2019,02,05,09,22,-1.60
2019,02,05,09,23,-1.50
2019,02,05,09,24,-1.50
2019,02,05,09,25,-1.50
2019,02,05,09,26,-1.50
2019,02,05,09,27,-1.50
2019,02,05,09,28,-1.40
2019,02,05,09,29,-1.40
2019,02,05,09,30,-1.40
2019,02,05,09,31,-1.40
2019,02,05,09,32,-1.30
2019,02,05,09,33,-1.30
2019,02,05,09,34,-1.30
2019,02,05,09,35,-1.30
2019,02,05,09,36,-1.30
2019,02,05,09,37,-1.30
2019,02,05,09,38,-1.30
2019,02,05,09,39,-1.20
2019,02,05,09,40,-1.20
2019,02,05,09,41,-1.20
2019,02,05,09,42,-1.20
2019,02,05,09,43,-1.10
2019,02,05,09,44,-1.10
2019,02,05,09,45,-1.10
2019,02,05,09,46,-1.10
2019,02,05,09,47,-1.10
2019,02,05,09,48,-1.10
2019,02,05,09,49,-1.10
2019,02,05,09,50,-1.10
2019,02,05,09,51,-1.10
2019,02,05,09,52,-1.10
2019,02,05,09,53,-1.00
2019,02,05,09,54,-1.00
2019,02,05,09,55,-0.90
2019,02,05,09,56,-0.90
2019,02,05,09,57,-0.90
2019,02,05,09,58,-0.90
2019,02,05,09,59,-0.80
2019,02,05,10,00,-0.80
2019,02,05,10,01,-0.80
2019,02,05,10,02,-0.80
2019,02,05,10,03,-0.80
2019,02,05,10,04,-0.80
2019,02,05,10,05,-0.80
2019,02,05,10,06,-0.80
2019,02,05,10,07,-0.80
2019,02,05,10,08,-0.90
2019,02,05,10,09,-0.90
2019,02,05,10,10,-0.90
2019,02,05,10,11,-0.90
2019,02,05,10,12,-0.90
2019,02,05,10,13,-0.90
2019,02,05,10,14,-0.90
2019,02,05,10,15,-0.90
2019,02,05,10,16,-0.90
2019,02,05,10,17,-0.90
2019,02,05,10,18,-0.90
2019,02,05,10,19,-0.90
2019,02,05,10,20,-0.80
2019,02,05,10,21,-0.80
2019,02,05,10,22,-0.80
2019,02,05,10,23,-0.80
2019,02,05,10,24,-0.80
2019,02,05,10,25,-0.80
2019,02,05,10,26,-0.80
2019,02,05,10,27,-0.70
2019,02,05,10,28,-0.80
2019,02,05,10,29,-0.80
2019,02,05,10,30,-0.90
2019,02,05,10,31,-0.90
2019,02,05,10,32,-0.90
2019,02,05,10,33,-0.90
2019,02,05,10,34,-0.90
2019,02,05,10,35,-0.90
2019,02,05,10,36,-0.90
2019,02,05,10,37,-0.90
2019,02,05,10,38,-0.80
2019,02,05,10,39,-0.80
2019,02,05,10,40,-0.80
2019,02,05,10,41,-0.80
2019,02,05,10,42,-0.80
2019,02,05,10,43,-0.80
2019,02,05,10,44,-0.80
2019,02,05,10,45,-0.80
2019,02,05,10,46,-0.80
2019,02,05,10,47,-0.70
2019,02,05,10,48,-0.70
2019,02,05,10,49,-0.70
2019,02,05,10,50,-0.70
2019,02,05,10,51,-0.70
2019,02,05,10,52,-0.60
2019,02,05,10,53,-0.60
2019,02,05,10,54,-0.60
2019,02,05,10,55,-0.50
2019,02,05,10,56,-0.50
2019,02,05,10,57,-0.50
2019,02,05,10,58,-0.50
2019,02,05,10,59,-0.50
2019,02,05,11,00,-0.50
2019,02,05,11,01,-0.50
2019,02,05,11,02,-0.40
2019,02,05,11,03,-0.40
2019,02,05,11,04,-0.40
2019,02,05,11,05,-0.50
2019,02,05,11,06,-0.50
2019,02,05,11,07,-0.60
2019,02,05,11,08,-0.60
2019,02,05,11,09,-0.70
2019,02,05,11,10,-0.70
2019,02,05,11,11,-0.70
2019,02,05,11,12,-0.60
2019,02,05,11,13,-0.60
2019,02,05,11,14,-0.50
2019,02,05,11,15,-0.50
2019,02,05,11,16,-0.40
2019,02,05,11,17,-0.40
2019,02,05,11,18,-0.40
2019,02,05,11,19,-0.40
2019,02,05,11,20,-0.40
2019,02,05,11,21,-0.40
2019,02,05,11,22,-0.40
2019,02,05,11,23,-0.50
2019,02,05,11,24,-0.50
2019,02,05,11,25,-0.60
2019,02,05,11,26,-0.60
2019,02,05,11,27,-0.60
2019,02,05,11,28,-0.50
2019,02,05,11,29,-0.50
2019,02,05,11,30,-0.50
2019,02,05,11,31,-0.40
2019,02,05,11,32,-0.30
2019,02,05,11,33,-0.20
2019,02,05,11,34,-0.30
2019,02,05,11,35,-0.30
2019,02,05,11,36,-0.30
2019,02,05,11,37,-0.30
2019,02,05,11,38,-0.30
2019,02,05,11,39,-0.30
2019,02,05,11,40,-0.30
2019,02,05,11,41,-0.30
2019,02,05,11,42,-0.30
2019,02,05,11,43,-0.20
2019,02,05,11,44,-0.10
2019,02,05,11,45,-0.10
2019,02,05,11,46,0.00
2019,02,05,11,47,0.00
2019,02,05,11,48,0.10
2019,02,05,11,49,0.10
2019,02,05,11,50,0.00
2019,02,05,11,51,0.00
2019,02,05,11,52,0.00
2019,02,05,11,53,0.00
2019,02,05,11,54,0.00
2019,02,05,11,55,0.10
2019,02,05,11,56,0.20
2019,02,05,11,57,0.20
2019,02,05,11,58,0.30
2019,02,05,11,59,0.40
2019,02,05,12,00,0.40
2019,02,05,12,01,0.40
2019,02,05,12,02,0.50
2019,02,05,12,03,0.50
2019,02,05,12,04,0.50
2019,02,05,12,05,0.40
2019,02,05,12,06,0.40
2019,02,05,12,07,0.30
2019,02,05,12,08,0.30
2019,02,05,12,09,0.20
2019,02,05,12,10,0.20
2019,02,05,12,11,0.20
2019,02,05,12,12,0.20
2019,02,05,12,13,0.20
2019,02,05,12,14,0.20
2019,02,05,12,15,0.10
2019,02,05,12,16,0.10
2019,02,05,12,17,0.10
2019,02,05,12,18,0.10
2019,02,05,12,19,0.10
2019,02,05,12,20,0.10
2019,02,05,12,21,0.00
2019,02,05,12,22,0.00
2019,02,05,12,23,0.00
2019,02,05,12,24,-0.10
2019,02,05,12,25,-0.10
2019,02,05,12,26,-0.10
2019,02,05,12,27,0.00
2019,02,05,12,28,0.10
2019,02,05,12,29,0.20
2019,02,05,12,30,0.20
2019,02,05,12,31,0.30
2019,02,05,12,32,0.30
2019,02,05,12,33,0.40
2019,02,05,12,34,0.40
2019,02,05,12,35,0.50
2019,02,05,12,36,0.50
2019,02,05,12,37,0.50
2019,02,05,12,38,0.50
2019,02,05,12,39,0.50
2019,02,05,12,40,0.50
2019,02,05,12,41,0.50
2019,02,05,12,42,0.60
2019,02,05,12,43,0.60
2019,02,05,12,44,0.60
2019,02,05,12,45,0.70
2019,02,05,12,46,0.70
2019,02,05,12,47,0.70
2019,02,05,12,48,0.70
2019,02,05,12,49,0.80
2019,02,05,12,50,0.80
2019,02,05,12,51,0.90
2019,02,05,12,52,0.90
2019,02,05,12,53,1.00
2019,02,05,12,54,1.00
2019,02,05,12,55,1.10
2019,02,05,12,56,1.20
2019,02,05,12,57,1.20
2019,02,05,12,58,1.20
2019,02,05,12,59,1.10
2019,02,05,13,00,1.00
2019,02,05,13,01,0.90
2019,02,05,13,02,0.70
2019,02,05,13,03,0.60
2019,02,05,13,04,0.50
2019,02,05,13,05,0.40
2019,02,05,13,06,0.30
2019,02,05,13,07,0.30
2019,02,05,13,08,0.30
2019,02,05,13,09,0.30
2019,02,05,13,10,0.30
2019,02,05,13,11,0.30
2019,02,05,13,12,0.40
2019,02,05,13,13,0.50
2019,02,05,13,14,0.60
2019,02,05,13,15,0.70
2019,02,05,13,16,0.70
2019,02,05,13,17,0.80
2019,02,05,13,18,0.90
2019,02,05,13,19,1.00
2019,02,05,13,20,1.10
2019,02,05,13,21,1.20
2019,02,05,13,22,1.20
2019,02,05,13,23,1.20
2019,02,05,13,24,1.30
2019,02,05,13,25,1.30
2019,02,05,13,26,1.30
2019,02,05,13,27,1.30
2019,02,05,13,28,1.30
2019,02,05,13,29,1.30
2019,02,05,13,30,1.30
2019,02,05,13,31,1.30
2019,02,05,13,32,1.30
2019,02,05,13,33,1.30
2019,02,05,13,34,1.30
2019,02,05,13,35,1.20
2019,02,05,13,36,1.20
2019,02,05,13,37,1.10
2019,02,05,13,38,1.10
2019,02,05,13,39,1.10
2019,02,05,13,40,1.00
2019,02,05,13,41,1.00
2019,02,05,13,42,1.00
2019,02,05,13,43,0.90
2019,02,05,13,44,0.90
2019,02,05,13,45,0.90
2019,02,05,13,46,0.90
2019,02,05,13,47,1.00
2019,02,05,13,48,1.00
2019,02,05,13,49,1.10
2019,02,05,13,50,1.20
2019,02,05,13,51,1.20
2019,02,05,13,52,1.20
2019,02,05,13,53,1.20
2019,02,05,13,54,1.30
2019,02,05,13,55,1.40
2019,02,05,13,56,1.40
2019,02,05,13,57,1.50
2019,02,05,13,58,1.60
2019,02,05,13,59,1.60
2019,02,05,14,00,1.60
2019,02,05,14,01,1.40
2019,02,05,14,02,1.30
2019,02,05,14,03,1.20
2019,02,05,14,04,1.20
2019,02,05,14,05,1.20
2019,02,05,14,06,1.20
2019,02,05,14,07,1.30
2019,02,05,14,08,1.30
2019,02,05,14,09,1.30
2019,02,05,14,10,1.30
2019,02,05,14,11,1.40
2019,02,05,14,12,1.40
2019,02,05,14,13,1.50
2019,02,05,14,14,1.50
2019,02,05,14,15,1.60
2019,02,05,14,16,1.60
2019,02,05,14,17,1.70
2019,02,05,14,18,1.70
2019,02,05,14,19,1.70
2019,02,05,14,20,1.70
2019,02,05,14,21,1.70
2019,02,05,14,22,1.70
2019,02,05,14,23,1.60
2019,02,05,14,24,1.60
2019,02,05,14,25,1.60
2019,02,05,14,26,1.60
2019,02,05,14,27,1.60
2019,02,05,14,28,1.60
2019,02,05,14,29,1.60
2019,02,05,14,30,1.60
2019,02,05,14,31,1.60
2019,02,05,14,32,1.50
2019,02,05,14,33,1.50
2019,02,05,14,34,1.50
2019,02,05,14,35,1.40
2019,02,05,14,36,1.40
2019,02,05,14,37,1.40
2019,02,05,14,38,1.30
2019,02,05,14,39,1.30
2019,02,05,14,40,1.30
2019,02,05,14,41,1.30
2019,02,05,14,42,1.30
2019,02,05,14,43,1.30
2019,02,05,14,44,1.30
2019,02,05,14,45,1.30
2019,02,05,14,46,1.30
2019,02,05,14,47,1.30
2019,02,05,14,48,1.30
2019,02,05,14,49,1.30
2019,02,05,14,50,1.30
2019,02,05,14,51,1.20
2019,02,05,14,52,1.30
2019,02,05,14,53,1.30
2019,02,05,14,54,1.30
2019,02,05,14,55,1.30
2019,02,05,14,56,1.30
2019,02,05,14,57,1.30
2019,02,05,14,58,1.30
2019,02,05,14,59,1.40
2019,02,05,15,00,1.40
2019,02,05,15,01,1.40
2019,02,05,15,02,1.40
2019,02,05,15,03,1.40
2019,02,05,15,04,1.40
2019,02,05,15,05,1.40
2019,02,05,15,06,1.30
2019,02,05,15,07,1.30
2019,02,05,15,08,1.30
2019,02,05,15,09,1.30
2019,02,05,15,10,1.30
2019,02,05,15,11,1.30
2019,02,05,15,12,1.30
2019,02,05,15,13,1.30
2019,02,05,15,14,1.30
2019,02,05,15,15,1.30
2019,02,05,15,16,1.30
2019,02,05,15,17,1.30
2019,02,05,15,18,1.20
2019,02,05,15,19,1.20
2019,02,05,15,20,1.20
2019,02,05,15,21,1.20
2019,02,05,15,22,1.20
2019,02,05,15,23,1.20
2019,02,05,15,24,1.20
2019,02,05,15,25,1.20
2019,02,05,15,26,1.20
2019,02,05,15,27,1.20
2019,02,05,15,28,1.10
2019,02,05,15,29,1.10
2019,02,05,15,30,1.10
2019,02,05,15,31,1.10
2019,02,05,15,32,1.10
2019,02,05,15,33,1.10
2019,02,05,15,34,1.00
2019,02,05,15,35,1.00
2019,02,05,15,36,1.00
2019,02,05,15,37,1.00
2019,02,05,15,38,1.00
2019,02,05,15,39,1.00
2019,02,05,15,40,1.00
2019,02,05,15,41,1.00
2019,02,05,15,42,0.90
2019,02,05,15,43,0.90
2019,02,05,15,44,0.90
2019,02,05,15,45,0.90
2019,02,05,15,46,0.90
2019,02,05,15,47,0.90
2019,02,05,15,48,0.90
2019,02,05,15,49,0.90
2019,02,05,15,50,0.90
2019,02,05,15,51,0.80
2019,02,05,15,52,0.80
2019,02,05,15,53,0.80
2019,02,05,15,54,0.80
2019,02,05,15,55,0.80
2019,02,05,15,56,0.80
2019,02,05,15,57,0.80
2019,02,05,15,58,0.80
2019,02,05,15,59,0.80
2019,02,05,16,00,0.80
2019,02,05,16,01,0.80
2019,02,05,16,02,0.80
2019,02,05,16,03,0.80
2019,02,05,16,04,0.80
2019,02,05,16,05,0.80
2019,02,05,16,06,0.80
2019,02,05,16,07,0.80
2019,02,05,16,08,0.80
2019,02,05,16,09,0.80
2019,02,05,16,10,0.80
2019,02,05,16,11,0.80
2019,02,05,16,12,0.80
2019,02,05,16,13,0.80
2019,02,05,16,14,0.80
2019,02,05,16,15,0.80
2019,02,05,16,16,0.80
2019,02,05,16,17,0.80
2019,02,05,16,18,0.80
2019,02,05,16,19,0.80
2019,02,05,16,20,0.80
2019,02,05,16,21,0.80
2019,02,05,16,22,0.80
2019,02,05,16,23,0.80
2019,02,05,16,24,0.80
2019,02,05,16,25,0.80
2019,02,05,16,26,0.80
2019,02,05,16,27,0.80
2019,02,05,16,28,0.80
2019,02,05,16,29,0.80
2019,02,05,16,30,0.70
2019,02,05,16,31,0.70
2019,02,05,16,32,0.70
2019,02,05,16,33,0.70
2019,02,05,16,34,0.70
2019,02,05,16,35,0.70
2019,02,05,16,36,0.70
2019,02,05,16,37,0.70
2019,02,05,16,38,0.70
2019,02,05,16,39,0.70
2019,02,05,16,40,0.70
2019,02,05,16,41,0.70
2019,02,05,16,42,0.70
2019,02,05,16,43,0.70
2019,02,05,16,44,0.70
2019,02,05,16,45,0.70
2019,02,05,16,46,0.70
2019,02,05,16,47,0.70
2019,02,05,16,48,0.70
2019,02,05,16,49,0.60
2019,02,05,16,50,0.60
2019,02,05,16,51,0.60
2019,02,05,16,52,0.60
2019,02,05,16,53,0.60
2019,02,05,16,54,0.60
2019,02,05,16,55,0.60
2019,02,05,16,56,0.60
2019,02,05,16,57,0.60
2019,02,05,16,58,0.60
2019,02,05,16,59,0.60
2019,02,05,17,00,0.50
2019,02,05,17,01,0.50
2019,02,05,17,02,0.50
2019,02,05,17,03,0.50
2019,02,05,17,04,0.50
2019,02,05,17,05,0.50
2019,02,05,17,06,0.50
2019,02,05,17,07,0.50
2019,02,05,17,08,0.40
2019,02,05,17,09,0.40
2019,02,05,17,10,0.40
2019,02,05,17,11,0.40
2019,02,05,17,12,0.40
2019,02,05,17,13,0.30
2019,02,05,17,14,0.30
2019,02,05,17,15,0.30
2019,02,05,17,16,0.20
2019,02,05,17,17,0.20
2019,02,05,17,18,0.10
2019,02,05,17,19,0.00
2019,02,05,17,20,-0.10
2019,02,05,17,21,-0.10
2019,02,05,17,22,-0.20
2019,02,05,17,23,-0.20
2019,02,05,17,24,-0.30
2019,02,05,17,25,-0.30
2019,02,05,17,26,-0.40
2019,02,05,17,27,-0.40
2019,02,05,17,28,-0.40
2019,02,05,17,29,-0.50
2019,02,05,17,30,-0.50
2019,02,05,17,31,-0.50
2019,02,05,17,32,-0.60
2019,02,05,17,33,-0.60
2019,02,05,17,34,-0.60
2019,02,05,17,35,-0.60
2019,02,05,17,36,-0.60